SCP
0 0 0 0 0 0 0 0 0 1 2 9 1 1 2 2 1 1 1 1 1 1 2 1 1 1 0 0 1 1 1 1 1 1 2 3 4 3 2 3 3 1 0
0 0 0 0 0 0 0 0 0 0 0 2 3 4 2 2 1 1 2 2 1 2 2 1 2 1 1 0 2 1 2 2 3 3 2 2 2 4 4 2 2 1 1
0 0 0 0 0 0 0 0 0 0 0 1 4 5 5 5 3 0 0 2 1 2 3 2 1 2 1 1 2 2 3 2 4 6 3 1 1 1 5 5 1 1 1
0 0 0 0 0 0 0 0 0 0 0 0 1 2 6 7 8 0 1 2 1 1 2 3 2 3 2 0 2 2 3 5 3 5 3 2 3 3 2 4 3 1 2
0 0 0 0 0 0 0 0 0 0 0 0 1 0 1 1 4 5 6 5 4 3 2 1 0 5 4 1 2 5 6 5 3 3 5 4 2 3 3 2 2 2 1
0 0 0 0 0 0 0 0 0 0 0 0 0 0 1 1 1 2 5 7 4 4 4 3 4 4 2 2 6 4 6 8 4 3 4 3 3 2 3 2 1 2 2
0 0 0 0 0 0 0 0 0 0 0 0 0 0 0 0 1 2 1 3 5 5 5 7 3 5 4 4 5 7 7 8 4 6 3 3 2 2 3 2 1 1 3
0 0 0 0 0 0 0 0 0 0 0 0 0 0 0 0 0 1 1 0 1 3 7 10 5 5 5 6 4 8 5 8 6 5 4 2 2 3 3 2 1 2 3
0 0 0 0 0 0 0 0 0 0 0 0 0 0 0 0 0 2 3 1 3 1 3 8 5 4 4 6 9 5 8 6 7 5 4 2 3 4 4 2 1 1 1
0 0 0 0 0 0 0 0 0 0 0 0 0 0 0 0 0 1 1 2 3 5 4 6 7 7 5 6 9 7 6 7 5 4 5 3 3 5 3 1 1 1 1
0 0 0 0 0 0 0 0 0 0 0 0 0 0 0 0 0 0 0 1 2 3 3 3 3 3 3 5 7 6 6 6 6 4 5 3 4 3 2 2 1 1 1
0 0 0 0 0 0 0 0 0 0 0 0 0 0 0 0 0 0 0 1 2 2 2 2 2 2 3 4 5 6 4 5 4 3 3 2 3 3 3 2 2 1 1
0 0 0 0 0 0 0 0 0 0 0 0 0 0 0 0 1 1 1 1 1 1 1 1 1 1 2 4 4 3 3 5 3 2 2 2 3 2 2 1 1 1 1
0 0 0 0 0 0 0 0 0 0 0 0 0 0 0 0 0 1 1 1 0 1 1 1 1 1 2 2 2 2 4 4 2 3 3 2 2 2 2 1 1 1 1
0 0 0 0 0 0 0 0 0 0 0 0 0 0 0 0 0 0 1 1 1 1 0 1 1 2 2 2 3 3 4 4 3 3 2 2 2 1 1 2 1 2 1
0 0 0 0 0 0 0 0 0 0 0 0 0 0 0 0 0 0 1 2 1 1 1 1 1 2 1 1 2 3 4 3 3 3 2 2 1 1 0 0 0 1 1
0 0 0 0 0 0 0 0 0 0 0 0 0 0 0 0 0 0 1 1 2 2 1 2 2 2 2 2 2 3 3 3 3 2 1 1 1 1 1 0 0 0 0
0 0 0 0 0 0 0 0 0 0 0 0 0 0 0 0 0 0 2 1 3 2 2 2 3 3 5 0 2 2 3 2 2 1 1 1 1 1 0 1 0 0 0
0 0 0 0 0 0 0 0 0 0 0 0 0 0 0 0 0 0 2 1 2 2 2 2 3 4 2 0 1 1 2 1 1 1 1 1 1 0 0 1 0 0 0
0 0 0 0 -0 -0 -0 -0 -0 0 0 0 0 0 0 0 0 0 1 2 2 2 2 2 3 4 1 0 0 1 1 1 1 1 1 0 0 0 0 0 1 0 0
0 0 0 -0 -0 -0 -0 -0 -0 -0 0 0 0 0 0 0 0 1 1 2 2 2 2 3 4 3 1 0 0 0 1 1 0 0 0 0 0 0 0 0 0 0 0
0 -0 -0 -0 0 0 0 0 -0 -0 -0 -0 0 -0 0 0 0 1 1 1 2 2 2 4 4 2 1 0 0 0 0 0 0 0 0 0 0 0 0 0 0 0 0
-0 0 -0 -0 -0 0 -0 0 0 -0 0 -0 -0 0 0 0 0 1 1 2 1 2 4 3 2 2 1 0 0 0 0 0 0 0 0 0 0 0 0 0 0 0 -0
0 0 -0 -0 -0 -0 -0 0 0 0 0 0 0 0 0 0 0 0 1 1 2 3 3 2 1 1 0 0 0 0 0 0 0 0 0 0 0 0 -0 0 -0 -0 -0
0 -0 -0 0 0 0 0 0 -0 0 0 0 0 0 0 0 0 1 1 2 2 2 1 1 1 1 0 0 0 0 0 0 0 0 0 0 -0 -0 -0 -0 -0 0 -0
-0 -0 -0 -0 -0 0 -0 -0 0 0 0 0 0 0 0 1 0 0 0 0 0 0 0 0 0 0 0 0 0 0 -0 -0 -0 0 0 0 -0 -0 -0 -0 0 0 0
Wind_Speed_500mb
38 33 21 16 6 4 11 7 8 22 45 85 75 40 52 51 62 69 67 72 71 63 65 51 50 52 51 39 42 34 33 45 33 38 36 36 45 45 40 37 38 32 30
31 30 29 24 12 23 25 13 14 16 25 47 98 95 72 70 53 58 59 70 70 72 71 69 65 72 72 68 58 58 50 60 44 42 32 24 34 45 43 29 30 34 30
26 27 28 25 15 14 22 20 22 21 21 30 44 51 83 90 79 86 87 80 73 71 76 74 68 67 75 62 55 63 67 70 47 47 39 20 31 33 22 26 23 31 31
31 25 24 24 19 14 9 11 21 24 14 22 22 38 42 74 102 103 84 84 86 82 81 84 87 62 108 104 68 70 73 65 50 42 52 47 38 30 30 22 23 26 33
18 15 12 9 7 7 9 8 12 16 18 22 29 31 47 45 53 59 56 56 60 60 85 75 55 89 105 89 71 66 72 53 54 54 43 34 31 38 33 36 25 23 25
13 10 6 9 10 12 11 12 12 14 23 22 21 26 37 44 44 45 48 53 53 66 77 67 89 93 111 105 76 72 72 71 51 53 44 40 31 36 32 32 35 35 26
19 15 13 15 16 17 20 20 17 18 20 22 28 31 36 37 44 45 50 45 46 49 51 66 81 96 91 80 69 69 71 64 58 64 49 45 41 37 31 29 37 30 25
18 16 17 18 22 24 24 23 25 28 26 23 27 33 41 34 39 40 38 37 47 48 39 68 71 74 76 68 62 58 60 62 63 60 58 42 40 37 33 33 33 31 28
19 20 25 25 25 26 28 31 31 30 30 31 30 33 36 43 47 48 50 39 43 56 63 48 63 64 69 64 67 58 61 59 56 52 47 45 37 38 34 30 33 35 32
21 31 37 39 38 35 34 32 34 36 35 35 36 36 38 38 41 48 55 55 56 53 53 58 75 84 73 63 62 62 60 59 54 44 43 42 39 39 31 30 26 28 31
34 38 41 37 41 43 43 42 42 41 41 40 38 40 41 42 44 48 50 55 58 61 59 54 70 66 55 61 64 62 52 55 50 40 43 44 41 33 31 33 29 31 30
33 37 38 39 40 44 50 53 51 51 50 47 45 43 44 44 48 50 54 59 55 56 55 53 61 62 61 59 64 62 48 46 44 45 43 38 36 32 35 33 32 29 29
35 34 44 47 46 47 49 53 56 57 56 53 52 50 49 48 51 52 52 57 53 52 50 48 50 52 56 59 59 52 48 48 44 44 41 38 38 37 35 33 29 27 29
42 45 51 51 55 59 62 62 63 61 60 57 57 55 52 53 50 52 52 53 51 52 53 53 52 54 53 55 53 48 48 46 43 43 41 37 37 40 37 30 35 25 26
57 63 58 66 74 77 74 80 81 70 64 58 59 59 56 54 52 50 53 54 56 55 55 55 54 56 57 57 54 50 50 48 42 40 37 35 38 40 37 36 29 29 29
63 64 71 74 70 75 76 73 74 69 66 58 62 59 55 54 54 56 57 55 58 56 56 58 56 59 59 58 57 55 53 46 39 39 34 31 39 41 41 37 36 36 37
79 77 74 68 65 72 69 72 65 65 60 63 65 61 57 58 57 54 55 58 60 59 60 62 63 62 66 57 64 64 47 43 43 37 32 30 25 32 34 43 42 39 31
66 68 75 74 75 68 73 71 75 78 65 68 68 63 59 58 58 58 62 60 59 59 61 66 64 63 63 62 66 64 43 39 36 32 30 27 27 33 29 34 37 32 36
79 75 75 78 83 74 82 76 78 79 81 74 70 63 59 60 59 63 67 63 59 61 63 66 66 64 70 69 63 60 40 36 33 28 25 29 30 29 36 37 28 31 36
78 78 85 87 83 78 72 74 79 71 70 74 68 61 60 62 63 69 65 66 61 64 62 68 69 74 70 65 61 56 37 36 27 27 34 37 24 32 25 34 31 31 33
86 88 78 75 77 77 80 77 68 71 68 64 64 61 64 69 64 67 69 67 65 65 65 68 68 69 65 63 65 53 38 34 30 26 21 22 30 22 21 28 29 26 25
85 85 82 80 79 73 68 75 76 72 64 59 61 57 64 66 65 65 60 66 66 68 67 70 65 59 74 74 70 51 32 36 30 30 23 27 26 23 21 21 24 25 26
87 83 81 82 77 74 68 70 76 66 58 64 64 62 70 65 58 60 64 66 69 74 84 73 62 65 80 73 65 53 36 35 31 34 34 26 28 24 23 30 22 25 24
80 83 82 83 80 68 70 71 64 60 64 69 72 75 72 60 61 65 63 73 86 81 71 70 65 62 75 66 58 52 42 43 35 35 28 34 30 25 24 27 26 21 22
87 85 86 87 84 68 64 56 55 56 66 71 73 69 63 60 61 69 78 86 82 77 78 70 69 74 62 57 48 44 39 36 40 37 39 35 30 27 28 27 22 14 14
94 90 84 83 85 65 58 50 49 54 63 63 58 58 54 77 71 80 71 66 68 66 65 61 60 50 48 54 52 51 46 42 37 38 36 36 32 30 27 21 17 15 19
Wind_Direction_500mb
229 231 235 241 186 233 283 230 237 221 220 225 246 233 227 234 244 241 243 250 254 252 247 266 254 255 254 247 251 267 313 264 266 267 263 268 276 284 267 251 262 257 254
222 233 232 232 233 256 268 277 267 243 203 227 223 236 243 244 261 266 250 244 241 245 249 237 252 255 264 261 244 261 259 273 266 252 267 278 289 255 258 245 248 250 247
224 235 230 222 221 216 246 250 247 257 224 209 213 229 238 234 243 262 259 250 253 240 251 247 253 260 265 253 244 251 253 264 251 246 248 262 267 305 241 245 258 243 252
222 227 217 218 216 220 223 256 263 253 260 247 230 217 237 232 230 241 256 256 253 247 238 245 253 243 249 261 251 252 257 265 243 243 250 248 257 278 278 243 245 239 243
208 213 202 207 233 235 247 251 260 271 258 237 236 219 235 233 236 236 239 238 244 240 251 247 263 251 248 251 251 245 261 249 251 237 243 256 257 259 259 265 254 238 235
183 202 240 273 277 277 269 263 277 283 288 274 254 247 237 228 237 237 241 241 256 248 245 248 249 253 248 248 243 250 253 262 240 235 238 241 244 250 247 260 266 259 243
206 213 255 279 293 289 278 283 288 291 286 288 278 274 262 258 258 248 236 236 241 240 249 254 253 247 237 242 243 246 254 251 249 238 238 241 245 247 249 253 265 257 255
235 238 267 277 293 296 298 281 283 290 292 291 288 284 275 269 263 268 263 250 244 242 242 248 251 240 234 244 250 238 255 240 248 233 245 233 241 241 239 251 256 252 247
243 263 275 280 282 285 289 290 286 283 285 288 287 280 276 271 264 257 251 255 259 238 231 245 256 249 248 252 249 244 235 233 237 240 241 237 237 233 234 241 240 248 258
274 268 271 274 280 282 281 279 278 281 279 281 284 286 283 276 268 267 262 260 253 251 252 236 246 250 254 248 240 237 225 232 230 230 238 228 228 236 229 234 232 238 243
290 291 282 276 274 276 279 278 276 272 274 276 277 283 285 279 269 263 266 264 262 255 252 251 245 252 243 235 231 230 221 226 224 226 230 235 221 226 232 225 231 232 245
287 300 296 292 288 283 281 278 277 276 271 269 272 273 277 278 272 265 258 257 259 262 264 254 253 236 241 234 230 226 207 216 215 218 217 222 226 220 215 224 223 242 238
264 281 290 290 292 295 291 283 276 273 271 267 266 267 270 271 272 267 260 253 252 252 251 245 238 229 226 221 218 211 204 214 216 220 221 219 212 224 215 214 225 239 234
286 286 280 278 281 286 287 286 277 269 267 265 264 263 265 264 265 264 263 256 250 248 245 239 231 225 218 214 210 205 204 211 216 220 218 216 218 218 212 217 224 229 224
290 289 291 290 288 286 282 283 274 266 260 259 259 257 261 265 263 260 257 253 247 243 240 233 226 221 216 213 206 204 203 209 212 215 217 218 216 222 219 223 232 225 228
291 292 288 287 296 292 288 280 281 261 255 259 262 258 258 263 259 259 255 252 247 241 236 229 223 217 212 213 207 203 203 204 210 208 209 211 218 221 224 223 223 228 229
296 293 290 290 291 288 280 282 279 287 260 259 260 258 258 262 258 255 251 248 246 238 234 223 220 214 211 211 209 201 196 200 203 203 202 206 217 235 231 230 229 234 233
293 290 290 291 290 281 276 277 272 272 274 259 258 255 255 257 252 251 253 247 245 235 228 220 216 208 203 207 208 199 191 188 193 194 201 210 219 237 214 234 227 225 234
291 294 291 289 285 279 277 269 270 263 258 263 256 252 253 253 251 249 254 246 241 228 220 212 206 200 202 204 202 193 186 185 187 195 210 215 213 228 220 220 219 211 221
299 301 296 291 283 279 275 270 266 258 250 255 249 248 252 245 253 244 253 241 229 220 210 205 199 198 204 193 194 172 179 184 187 191 213 225 205 228 226 213 215 222 223
294 295 290 285 281 278 277 271 263 262 254 250 248 247 248 252 248 245 242 234 215 207 202 196 188 198 198 180 169 167 181 183 189 206 212 218 211 221 207 200 197 198 187
293 291 287 281 278 275 271 264 268 257 255 249 247 248 248 252 246 244 231 209 207 205 192 185 181 184 172 169 171 174 175 183 187 191 184 209 192 190 190 192 190 177 177
287 285 281 280 276 273 268 260 262 259 252 247 246 242 246 256 246 230 207 207 199 183 176 169 165 162 167 171 176 180 187 188 182 195 196 198 176 177 180 181 180 179 178
284 283 281 277 276 271 268 265 258 249 246 246 250 253 250 243 230 211 209 187 171 164 159 157 160 161 168 175 181 186 190 176 181 183 185 171 164 149 161 165 173 175 182
284 280 275 275 272 269 266 259 248 240 237 241 243 244 242 227 206 187 176 167 167 172 164 164 163 162 166 173 173 170 166 169 182 185 171 164 159 161 161 155 158 158 175
292 286 276 266 265 255 254 247 241 231 236 239 235 235 196 165 168 165 155 156 156 160 157 159 154 157 167 175 171 162 173 180 184 164 163 166 159 159 161 164 170 172 180
Wind_Speed_850mb
38 33 21 16 6 4 11 7 8 22 45 85 75 40 52 51 62 69 67 72 71 63 65 51 50 52 51 39 42 34 33 45 33 38 36 36 45 45 40 37 38 32 30
31 30 29 24 12 23 25 13 14 16 25 47 98 95 72 70 53 58 59 70 70 72 71 69 65 72 72 68 58 58 50 60 44 42 32 24 34 45 43 29 30 34 30
26 27 28 25 15 14 22 20 22 21 21 30 44 51 83 90 79 86 87 80 73 71 76 74 68 67 75 62 55 63 67 70 47 47 39 20 31 33 22 26 23 31 31
31 25 24 24 19 14 9 11 21 24 14 22 22 38 42 74 102 103 84 84 86 82 81 84 87 62 108 104 68 70 73 65 50 42 52 47 38 30 30 22 23 26 33
18 15 12 9 7 7 9 8 12 16 18 22 29 31 47 45 53 59 56 56 60 60 85 75 55 89 105 89 71 66 72 53 54 54 43 34 31 38 33 36 25 23 25
13 10 6 9 10 12 11 12 12 14 23 22 21 26 37 44 44 45 48 53 53 66 77 67 89 93 111 105 76 72 72 71 51 53 44 40 31 36 32 32 35 35 26
19 15 13 15 16 17 20 20 17 18 20 22 28 31 36 37 44 45 50 45 46 49 51 66 81 96 91 80 69 69 71 64 58 64 49 45 41 37 31 29 37 30 25
18 16 17 18 22 24 24 23 25 28 26 23 27 33 41 34 39 40 38 37 47 48 39 68 71 74 76 68 62 58 60 62 63 60 58 42 40 37 33 33 33 31 28
19 20 25 25 25 26 28 31 31 30 30 31 30 33 36 43 47 48 50 39 43 56 63 48 63 64 69 64 67 58 61 59 56 52 47 45 37 38 34 30 33 35 32
21 31 37 39 38 35 34 32 34 36 35 35 36 36 38 38 41 48 55 55 56 53 53 58 75 84 73 63 62 62 60 59 54 44 43 42 39 39 31 30 26 28 31
34 38 41 37 41 43 43 42 42 41 41 40 38 40 41 42 44 48 50 55 58 61 59 54 70 66 55 61 64 62 52 55 50 40 43 44 41 33 31 33 29 31 30
33 37 38 39 40 44 50 53 51 51 50 47 45 43 44 44 48 50 54 59 55 56 55 53 61 62 61 59 64 62 48 46 44 45 43 38 36 32 35 33 32 29 29
35 34 44 47 46 47 49 53 56 57 56 53 52 50 49 48 51 52 52 57 53 52 50 48 50 52 56 59 59 52 48 48 44 44 41 38 38 37 35 33 29 27 29
42 45 51 51 55 59 62 62 63 61 60 57 57 55 52 53 50 52 52 53 51 52 53 53 52 54 53 55 53 48 48 46 43 43 41 37 37 40 37 30 35 25 26
57 63 58 66 74 77 74 80 81 70 64 58 59 59 56 54 52 50 53 54 56 55 55 55 54 56 57 57 54 50 50 48 42 40 37 35 38 40 37 36 29 29 29
63 64 71 74 70 75 76 73 74 69 66 58 62 59 55 54 54 56 57 55 58 56 56 58 56 59 59 58 57 55 53 46 39 39 34 31 39 41 41 37 36 36 37
79 77 74 68 65 72 69 72 65 65 60 63 65 61 57 58 57 54 55 58 60 59 60 62 63 62 66 57 64 64 47 43 43 37 32 30 25 32 34 43 42 39 31
66 68 75 74 75 68 73 71 75 78 65 68 68 63 59 58 58 58 62 60 59 59 61 66 64 63 63 62 66 64 43 39 36 32 30 27 27 33 29 34 37 32 36
79 75 75 78 83 74 82 76 78 79 81 74 70 63 59 60 59 63 67 63 59 61 63 66 66 64 70 69 63 60 40 36 33 28 25 29 30 29 36 37 28 31 36
78 78 85 87 83 78 72 74 79 71 70 74 68 61 60 62 63 69 65 66 61 64 62 68 69 74 70 65 61 56 37 36 27 27 34 37 24 32 25 34 31 31 33
86 88 78 75 77 77 80 77 68 71 68 64 64 61 64 69 64 67 69 67 65 65 65 68 68 69 65 63 65 53 38 34 30 26 21 22 30 22 21 28 29 26 25
85 85 82 80 79 73 68 75 76 72 64 59 61 57 64 66 65 65 60 66 66 68 67 70 65 59 74 74 70 51 32 36 30 30 23 27 26 23 21 21 24 25 26
87 83 81 82 77 74 68 70 76 66 58 64 64 62 70 65 58 60 64 66 69 74 84 73 62 65 80 73 65 53 36 35 31 34 34 26 28 24 23 30 22 25 24
80 83 82 83 80 68 70 71 64 60 64 69 72 75 72 60 61 65 63 73 86 81 71 70 65 62 75 66 58 52 42 43 35 35 28 34 30 25 24 27 26 21 22
87 85 86 87 84 68 64 56 55 56 66 71 73 69 63 60 61 69 78 86 82 77 78 70 69 74 62 57 48 44 39 36 40 37 39 35 30 27 28 27 22 14 14
94 90 84 83 85 65 58 50 49 54 63 63 58 58 54 77 71 80 71 66 68 66 65 61 60 50 48 54 52 51 46 42 37 38 36 36 32 30 27 21 17 15 19
Wind_Direction_850mb
229 231 235 241 186 233 283 230 237 221 220 225 246 233 227 234 244 241 243 250 254 252 247 266 254 255 254 247 251 267 313 264 266 267 263 268 276 284 267 251 262 257 254
222 233 232 232 233 256 268 277 267 243 203 227 223 236 243 244 261 266 250 244 241 245 249 237 252 255 264 261 244 261 259 273 266 252 267 278 289 255 258 245 248 250 247
224 235 230 222 221 216 246 250 247 257 224 209 213 229 238 234 243 262 259 250 253 240 251 247 253 260 265 253 244 251 253 264 251 246 248 262 267 305 241 245 258 243 252
222 227 217 218 216 220 223 256 263 253 260 247 230 217 237 232 230 241 256 256 253 247 238 245 253 243 249 261 251 252 257 265 243 243 250 248 257 278 278 243 245 239 243
208 213 202 207 233 235 247 251 260 271 258 237 236 219 235 233 236 236 239 238 244 240 251 247 263 251 248 251 251 245 261 249 251 237 243 256 257 259 259 265 254 238 235
183 202 240 273 277 277 269 263 277 283 288 274 254 247 237 228 237 237 241 241 256 248 245 248 249 253 248 248 243 250 253 262 240 235 238 241 244 250 247 260 266 259 243
206 213 255 279 293 289 278 283 288 291 286 288 278 274 262 258 258 248 236 236 241 240 249 254 253 247 237 242 243 246 254 251 249 238 238 241 245 247 249 253 265 257 255
235 238 267 277 293 296 298 281 283 290 292 291 288 284 275 269 263 268 263 250 244 242 242 248 251 240 234 244 250 238 255 240 248 233 245 233 241 241 239 251 256 252 247
243 263 275 280 282 285 289 290 286 283 285 288 287 280 276 271 264 257 251 255 259 238 231 245 256 249 248 252 249 244 235 233 237 240 241 237 237 233 234 241 240 248 258
274 268 271 274 280 282 281 279 278 281 279 281 284 286 283 276 268 267 262 260 253 251 252 236 246 250 254 248 240 237 225 232 230 230 238 228 228 236 229 234 232 238 243
290 291 282 276 274 276 279 278 276 272 274 276 277 283 285 279 269 263 266 264 262 255 252 251 245 252 243 235 231 230 221 226 224 226 230 235 221 226 232 225 231 232 245
287 300 296 292 288 283 281 278 277 276 271 269 272 273 277 278 272 265 258 257 259 262 264 254 253 236 241 234 230 226 207 216 215 218 217 222 226 220 215 224 223 242 238
264 281 290 290 292 295 291 283 276 273 271 267 266 267 270 271 272 267 260 253 252 252 251 245 238 229 226 221 218 211 204 214 216 220 221 219 212 224 215 214 225 239 234
286 286 280 278 281 286 287 286 277 269 267 265 264 263 265 264 265 264 263 256 250 248 245 239 231 225 218 214 210 205 204 211 216 220 218 216 218 218 212 217 224 229 224
290 289 291 290 288 286 282 283 274 266 260 259 259 257 261 265 263 260 257 253 247 243 240 233 226 221 216 213 206 204 203 209 212 215 217 218 216 222 219 223 232 225 228
291 292 288 287 296 292 288 280 281 261 255 259 262 258 258 263 259 259 255 252 247 241 236 229 223 217 212 213 207 203 203 204 210 208 209 211 218 221 224 223 223 228 229
296 293 290 290 291 288 280 282 279 287 260 259 260 258 258 262 258 255 251 248 246 238 234 223 220 214 211 211 209 201 196 200 203 203 202 206 217 235 231 230 229 234 233
293 290 290 291 290 281 276 277 272 272 274 259 258 255 255 257 252 251 253 247 245 235 228 220 216 208 203 207 208 199 191 188 193 194 201 210 219 237 214 234 227 225 234
291 294 291 289 285 279 277 269 270 263 258 263 256 252 253 253 251 249 254 246 241 228 220 212 206 200 202 204 202 193 186 185 187 195 210 215 213 228 220 220 219 211 221
299 301 296 291 283 279 275 270 266 258 250 255 249 248 252 245 253 244 253 241 229 220 210 205 199 198 204 193 194 172 179 184 187 191 213 225 205 228 226 213 215 222 223
294 295 290 285 281 278 277 271 263 262 254 250 248 247 248 252 248 245 242 234 215 207 202 196 188 198 198 180 169 167 181 183 189 206 212 218 211 221 207 200 197 198 187
293 291 287 281 278 275 271 264 268 257 255 249 247 248 248 252 246 244 231 209 207 205 192 185 181 184 172 169 171 174 175 183 187 191 184 209 192 190 190 192 190 177 177
287 285 281 280 276 273 268 260 262 259 252 247 246 242 246 256 246 230 207 207 199 183 176 169 165 162 167 171 176 180 187 188 182 195 196 198 176 177 180 181 180 179 178
284 283 281 277 276 271 268 265 258 249 246 246 250 253 250 243 230 211 209 187 171 164 159 157 160 161 168 175 181 186 190 176 181 183 185 171 164 149 161 165 173 175 182
284 280 275 275 272 269 266 259 248 240 237 241 243 244 242 227 206 187 176 167 167 172 164 164 163 162 166 173 173 170 166 169 182 185 171 164 159 161 161 155 158 158 175
292 286 276 266 265 255 254 247 241 231 236 239 235 235 196 165 168 165 155 156 156 160 157 159 154 157 167 175 171 162 173 180 184 164 163 166 159 159 161 164 170 172 180